[[{"header":{"parameterUnit":"m.s-1","parameterCategory":1,"la1":30.2991,"la2":30.254,"lo1":-89.0895,"lo2":-89.0444,"dy":0.0017,"dx":0.0017,"nx":28,"ny":28,"refTime":"2025-12-10T09:00:00:Z","depth":0,"parameterNumber":2,"parameterNumberName":"U-component_of_WINDS"},"data":[0,0,0,0,0,0,0,0,0,0,0,0,0,0,0,0,0,0,0,0,0,0,0,0,0,0,0,0,0,0,0,0,0,0,0,0,0,0,0,0,0,0,0,0,0,0,0,0,0,0,0,0,0,0,0,0,0,0,-2.1948,-2.1948,0,-2.1953,-2.1953,-2.1953,-2.1893,-2.1892,-2.189,-2.1888,-2.1895,-2.1897,-2.1899,0,0,0,0,0,0,0,0,0,0,0,0,0,-2.1887,-2.1888,-2.1948,-2.1948,-2.1948,-2.1953,-2.1953,-2.1953,-2.1893,-2.1891,-2.1889,-2.1888,-2.1895,-2.1897,-2.1899,0,0,0,0,0,0,0,0,0,0,0,0,0,-2.1905,-2.1889,-2.1948,-2.1919,-2.1916,-2.1953,-2.1953,-2.1953,-2.1894,-2.1891,-2.1889,-2.1887,-2.1894,-2.1896,-2.1899,-2.1964,0,0,-2.1907,-2.1908,0,0,0,0,0,0,0,0,-2.1904,-2.1907,-2.1923,-2.1921,-2.1918,-2.192,-2.1934,-2.1957,-2.1895,-2.1902,-2.1888,-2.1885,-2.1905,-2.1907,-2.1913,-2.1965,-2.1965,-2.1907,-2.1909,-2.191,-2.191,0,0,0,0,0,0,0,-2.1903,-2.1907,-2.195,-2.1923,-2.192,-2.1906,-2.1905,-2.1938,-2.1918,-2.1902,-2.1897,-2.1899,-2.1904,-2.1911,-2.1913,-2.1965,-2.1907,-2.1909,-2.1911,-2.1912,-2.207,-2.2072,0,0,0,0,0,0,-2.1905,-2.1906,-2.195,-2.195,-2.1905,-2.1909,-2.1909,-2.1922,-2.1917,-2.1914,-2.1901,-2.1896,-2.1908,-2.191,-2.1913,-2.199,-2.191,-2.1912,-2.1914,-2.2067,-2.2071,-2.2073,0,0,0,0,0,0,-2.1904,-2.191,-2.1949,-2.1927,-2.1931,-2.1912,-2.1928,-2.1923,-2.1931,-2.1917,-2.1913,-2.1912,-2.1906,-2.191,-2.1952,-2.1989,-2.1913,-2.1916,-2.2064,-2.2068,-2.2072,-2.2143,0,0,0,0,0,0,-2.1903,-2.191,-2.1934,-2.1928,-2.1932,-2.1988,-2.193,-2.1925,-2.1935,-2.1929,-2.1926,-2.1923,-2.1904,-2.1948,-2.1955,-2.1991,-2.1918,-2.2061,-2.2066,-2.2071,-2.2137,-2.2149,-2.2159,0,0,0,0,0,-2.1901,-2.1955,-2.1936,-2.1942,-2.1963,-2.1991,-2.1993,-2.197,-2.1938,-2.1963,-2.1954,-2.1923,-2.1984,-2.1953,-2.196,-2.1998,-2.2058,-2.2065,-2.207,-2.2133,-2.2147,-2.2159,0,0,0,0,0,0,-2.1967,-2.1953,-2.1932,-2.1986,-2.199,-2.198,-2.2011,-2.1985,-2.1999,-2.1993,-2.1963,-2.1963,-2.201,-2.2008,-2.1974,-2.206,-2.2016,-2.2023,-2.2061,-2.2074,-2.2085,-2.2085,-2.192,0,0,0,0,0,-2.1987,-2.2011,-2.1998,-2.2046,-2.2049,-2.203,-2.2041,-2.2022,-2.2026,-2.2027,-2.2021,-2.2026,-2.2046,-2.2059,-2.2077,-2.2136,-2.2135,-2.2165,-2.2176,-2.2185,-2.2192,-2.2224,-2.2237,-2.2093,-2.2093,-2.2093,0,0,-2.2031,-2.2026,-2.2043,-2.2059,-2.206,-2.2085,-2.2032,-2.2061,-2.2079,-2.2032,-2.2072,-2.2067,-2.207,-2.2122,-2.2144,-2.2121,-2.2232,-2.2193,-2.22,-2.2202,-2.2231,-2.2245,-2.2257,-2.2097,-2.2096,-2.2096,0,0,-2.2122,-2.2121,-2.2161,-2.2163,-2.2165,-2.2151,-2.2161,-2.2155,-2.215,-2.2189,-2.2154,-2.2176,-2.2211,-2.2214,-2.2221,-2.2313,-2.2286,-2.2319,-2.2376,-2.2407,-2.2418,-2.2428,-2.2462,-2.2474,-2.2326,-2.2326,-2.2326,0,-2.2176,-2.2213,-2.2185,-2.2217,-2.2225,-2.2182,-2.2222,-2.2225,-2.2233,-2.224,-2.2214,-2.2256,-2.2255,-2.2307,-2.2329,-2.2336,-2.2346,-2.232,-2.2419,-2.2428,-2.2437,-2.2469,-2.2482,-2.233,-2.233,-2.2329,-2.2329,0,-2.2279,-2.2305,-2.2337,-2.2345,-2.2356,-2.2392,-2.237,-2.2386,-2.2366,-2.2355,-2.2395,-2.2392,-2.2409,-2.2419,-2.24,-2.2468,-2.2454,-2.2424,-2.2378,-2.2456,-2.2485,-2.2497,-2.2336,-2.2335,-2.2334,-2.2333,0,0,-2.2414,-2.2405,-2.2418,-2.2421,-2.2419,-2.2438,-2.2472,-2.2487,-2.2501,-2.2507,-2.2535,-2.2565,-2.2537,-2.2544,-2.2525,-2.2552,-2.2626,-2.2519,-2.2518,-2.2539,-2.2701,-2.2724,-2.2739,-2.2607,-2.2609,-2.2611,-2.2701,0,-2.2504,-2.2561,-2.2537,-2.2597,-2.262,-2.2579,-2.2608,-2.261,-2.2601,-2.262,-2.2609,-2.2631,-2.2592,-2.2596,-2.2621,-2.2612,-2.2658,-2.2605,-2.2633,-2.2635,-2.2635,-2.2754,-2.2779,-2.2864,-2.2712,-2.2714,-2.2715,0,-2.2618,-2.2628,-2.269,-2.2683,-2.2692,-2.2719,-2.273,-2.2749,-2.275,-2.2741,-2.2749,-2.2724,-2.2756,-2.271,-2.2755,-2.2719,-2.2729,-2.2726,-2.2729,-2.2732,-2.2681,-2.2761,-2.289,-2.2904,-2.2733,-2.2731,-2.273,0,-2.2711,-2.274,-2.2781,-2.2785,-2.2778,-2.2798,-2.2796,-2.2794,-2.2805,-2.2815,-2.2822,-2.2836,-2.2844,-2.2855,-2.2834,-2.2802,-2.2882,-2.2834,-2.2876,-2.2877,-2.2896,-2.2896,-2.3031,-2.2901,-2.2901,-2.2901,-2.2901,0,-2.2815,-2.2855,-2.2823,-2.2848,-2.2891,-2.2862,-2.2906,-2.29,-2.2899,-2.2922,-2.2887,-2.291,-2.288,-2.29,-2.2884,-2.2924,-2.2927,-2.2921,-2.2917,-2.2925,-2.2926,-2.2933,-2.2927,-2.2904,-2.2903,-2.2903,-2.2902,0,-2.2928,-2.2908,-2.295,-2.2939,-2.2937,-2.297,-2.2961,-2.2984,-2.2971,-2.3001,-2.3007,-2.2987,-2.3009,-2.2989,-2.3009,-2.2998,-2.3052,-2.3038,-2.3052,-2.3048,-2.3092,-2.3089,-2.3237,-2.3255,-2.3113,-2.3114,-2.3116,0,-2.2996,-2.3026,-2.3018,-2.3031,-2.3031,-2.3052,-2.3062,-2.3034,-2.3047,-2.305,-2.3073,-2.3091,-2.3104,-2.3141,-2.3129,-2.3144,-2.3131,-2.3182,-2.3134,-2.3141,-2.3133,-2.3132,-2.3135,-2.3192,-2.3194,-2.3195,-2.3197,0,-2.312,-2.3108,-2.3124,-2.3136,-2.3149,-2.3158,-2.3164,-2.3176,-2.3148,-2.3163,-2.3184,-2.3194,-2.3215,-2.3234,-2.3245,-2.3243,-2.3216,-2.3212,-2.3222,-2.3232,-2.3239,-2.3236,-2.308,-2.3209,-2.3208,-2.3207,-2.3206,-2.3205,-2.3213,-2.3237,-2.3235,-2.3254,-2.3255,-2.3261,-2.3282,-2.3272,-2.3289,-2.3303,-2.3285,-2.3312,-2.3311,-2.3324,-2.3325,-2.3346,-2.3324,-2.334,-2.3344,-2.3349,-2.3355,-2.3235,-2.3347,-2.3347,-2.3347,-2.3346,-2.3346,0,-2.3336,-2.3332,-2.3349,-2.3358,-2.3373,-2.3344,-2.3348,-2.3363,-2.3386,-2.3388,-2.3401,-2.3426,-2.3443,-2.3432,-2.3448,-2.3466,-2.3454,-2.3471,-2.347,-2.347,-2.3373,-2.3363,-2.3481,-2.3481,-2.3481,-2.3481,-2.3481,-2.3481,-2.3401,-2.3441,-2.3429,-2.3468,-2.3464,-2.3489,-2.3494,-2.3499,-2.3501,-2.3529,-2.3543,-2.3536,-2.3533,-2.3547,-2.3562,-2.3558,-2.3566,-2.3588,-2.358,-2.349,-2.3477,-2.3464,-2.3454,-2.359,-2.359,-2.3676,-2.3676,-2.3677]},{"header":{"parameterUnit":"m.s-1","parameterCategory":1,"la1":30.2991,"la2":30.254,"lo1":-89.0895,"lo2":-89.0444,"dy":0.0017,"dx":0.0017,"nx":28,"ny":28,"refTime":"2025-12-10T09:00:00:Z","depth":0,"parameterNumber":3,"parameterNumberName":"V-component_of_WINDS"},"data":[0,0,0,0,0,0,0,0,0,0,0,0,0,0,0,0,0,0,0,0,0,0,0,0,0,0,0,0,0,0,0,0,0,0,0,0,0,0,0,0,0,0,0,0,0,0,0,0,0,0,0,0,0,0,0,0,0,0,-4.191,-4.191,0,-4.1944,-4.1944,-4.1945,-4.1878,-4.1876,-4.1874,-4.1872,-4.1904,-4.1907,-4.191,0,0,0,0,0,0,0,0,0,0,0,0,0,-4.1784,-4.1787,-4.191,-4.191,-4.1911,-4.1944,-4.1944,-4.1945,-4.1878,-4.1876,-4.1873,-4.1871,-4.1903,-4.1907,-4.191,0,0,0,0,0,0,0,0,0,0,0,0,0,-4.1831,-4.1788,-4.191,-4.1882,-4.1879,-4.1944,-4.1944,-4.1945,-4.1879,-4.1876,-4.1872,-4.1869,-4.1902,-4.1906,-4.191,-4.2003,0,0,-4.1924,-4.1926,0,0,0,0,0,0,0,0,-4.1828,-4.1835,-4.1885,-4.1884,-4.1881,-4.1903,-4.1912,-4.1964,-4.188,-4.1879,-4.1872,-4.1868,-4.1906,-4.191,-4.1924,-4.2004,-4.2006,-4.1924,-4.1927,-4.1929,-4.193,0,0,0,0,0,0,0,-4.1825,-4.1833,-4.1923,-4.1886,-4.1884,-4.1866,-4.1869,-4.1921,-4.1911,-4.1879,-4.1874,-4.1879,-4.1905,-4.192,-4.1924,-4.2006,-4.1924,-4.1928,-4.1931,-4.1932,-4.2164,-4.2168,0,0,0,0,0,0,-4.1826,-4.1831,-4.1922,-4.1924,-4.1846,-4.1871,-4.1875,-4.19,-4.191,-4.1908,-4.1882,-4.1876,-4.1914,-4.1919,-4.1925,-4.2034,-4.1929,-4.1933,-4.1935,-4.2161,-4.2165,-4.2169,0,0,0,0,0,0,-4.1823,-4.1834,-4.1921,-4.1876,-4.1886,-4.1877,-4.1906,-4.1902,-4.1917,-4.1912,-4.191,-4.19,-4.1911,-4.1919,-4.1984,-4.2034,-4.1935,-4.1939,-4.2156,-4.2162,-4.2167,-4.2253,0,0,0,0,0,0,-4.182,-4.1834,-4.187,-4.1878,-4.1889,-4.1981,-4.1909,-4.1905,-4.1925,-4.1918,-4.1928,-4.1927,-4.1909,-4.1978,-4.1988,-4.2038,-4.1942,-4.2152,-4.2159,-4.2165,-4.2245,-4.226,-4.2273,0,0,0,0,0,-4.1816,-4.1892,-4.1872,-4.1883,-4.1934,-4.1984,-4.199,-4.1969,-4.1929,-4.1965,-4.1962,-4.1926,-4.2027,-4.1985,-4.1996,-4.2048,-4.2149,-4.2157,-4.2165,-4.2239,-4.2257,-4.2273,0,0,0,0,0,0,-4.1889,-4.1893,-4.187,-4.1952,-4.1968,-4.1972,-4.2017,-4.1989,-4.2016,-4.2008,-4.198,-4.1983,-4.2054,-4.2057,-4.2011,-4.2138,-4.2081,-4.2091,-4.2134,-4.2151,-4.2164,-4.2162,-4.1946,0,0,0,0,0,-4.1915,-4.1957,-4.1957,-4.2029,-4.2038,-4.2026,-4.2047,-4.203,-4.2045,-4.2052,-4.2053,-4.2069,-4.2103,-4.2127,-4.2159,-4.2245,-4.2246,-4.2286,-4.23,-4.2311,-4.2321,-4.2367,-4.2384,-4.2195,-4.2195,-4.2195,0,0,-4.1969,-4.1976,-4.2003,-4.2044,-4.2054,-4.2097,-4.2032,-4.208,-4.2111,-4.2058,-4.2121,-4.2122,-4.2138,-4.2214,-4.2248,-4.2219,-4.2373,-4.2322,-4.2331,-4.2334,-4.2377,-4.2395,-4.2411,-4.22,-4.2199,-4.2199,0,0,-4.2088,-4.2098,-4.2159,-4.2171,-4.2188,-4.218,-4.2194,-4.2203,-4.2202,-4.2264,-4.2226,-4.2261,-4.2322,-4.2335,-4.2349,-4.2473,-4.2442,-4.2484,-4.2557,-4.2602,-4.2617,-4.263,-4.2674,-4.2691,-4.2494,-4.2494,-4.2494,0,-4.2153,-4.2217,-4.2194,-4.2245,-4.2263,-4.2218,-4.2279,-4.2291,-4.2318,-4.2331,-4.2298,-4.2374,-4.2381,-4.246,-4.249,-4.2503,-4.2518,-4.2483,-4.2617,-4.2629,-4.2641,-4.2683,-4.27,-4.2499,-4.2499,-4.2498,-4.2498,0,-4.2295,-4.234,-4.2387,-4.2415,-4.2438,-4.2494,-4.2478,-4.2505,-4.2485,-4.248,-4.2543,-4.255,-4.2583,-4.26,-4.2581,-4.2676,-4.2657,-4.2621,-4.2563,-4.2665,-4.2704,-4.272,-4.2506,-4.2505,-4.2503,-4.2502,0,0,-4.2463,-4.2477,-4.2495,-4.2507,-4.2522,-4.2556,-4.2609,-4.2641,-4.2665,-4.2684,-4.2728,-4.278,-4.2747,-4.2763,-4.2745,-4.2784,-4.2882,-4.2743,-4.2743,-4.2769,-4.2987,-4.3015,-4.3034,-4.2861,-4.2864,-4.2866,-4.2986,0,-4.2582,-4.2675,-4.2656,-4.2746,-4.2787,-4.2744,-4.279,-4.2804,-4.2801,-4.2834,-4.2829,-4.2867,-4.2819,-4.2829,-4.2866,-4.2862,-4.2926,-4.2853,-4.2901,-4.2903,-4.2899,-4.3054,-4.3084,-4.3197,-4.3001,-4.3004,-4.3005,0,-4.2734,-4.276,-4.2856,-4.2864,-4.288,-4.2923,-4.2951,-4.2983,-4.2998,-4.2992,-4.301,-4.2984,-4.3036,-4.2977,-4.3048,-4.2999,-4.3017,-4.3018,-4.3022,-4.3026,-4.2961,-4.3063,-4.3232,-4.3249,-4.3029,-4.3027,-4.3026,0,-4.2847,-4.2906,-4.2971,-4.2982,-4.2994,-4.3025,-4.3031,-4.3042,-4.3063,-4.3087,-4.31,-4.3129,-4.3145,-4.3168,-4.3151,-4.3109,-4.3224,-4.3164,-4.3221,-4.3221,-4.3248,-4.3246,-4.3422,-4.3258,-4.3258,-4.3258,-4.3257,0,-4.2983,-4.3043,-4.3022,-4.3062,-4.3128,-4.3104,-4.3169,-4.317,-4.318,-4.3219,-4.3183,-4.3219,-4.3194,-4.3228,-4.3214,-4.3275,-4.3282,-4.3279,-4.3274,-4.3282,-4.3283,-4.3294,-4.3286,-4.3262,-4.3261,-4.326,-4.326,0,-4.3121,-4.311,-4.3178,-4.3183,-4.3186,-4.3234,-4.3238,-4.3275,-4.3268,-4.3317,-4.3327,-4.3317,-4.3355,-4.3339,-4.338,-4.337,-4.3448,-4.3433,-4.3444,-4.344,-4.3499,-4.3494,-4.3689,-4.3713,-4.3533,-4.3534,-4.3536,0,-4.3209,-4.3255,-4.3265,-4.3289,-4.3298,-4.3336,-4.3358,-4.3335,-4.3359,-4.3378,-4.3413,-4.3448,-4.3475,-4.3538,-4.3534,-4.3564,-4.355,-4.3616,-4.3554,-4.3561,-4.3552,-4.355,-4.3554,-4.3629,-4.3631,-4.3633,-4.3634,0,-4.3366,-4.3358,-4.3391,-4.3422,-4.3448,-4.3471,-4.349,-4.3512,-4.349,-4.3518,-4.3557,-4.3579,-4.362,-4.3656,-4.3683,-4.3687,-4.3658,-4.3653,-4.3668,-4.3677,-4.3682,-4.3681,-4.3479,-4.3649,-4.3648,-4.3647,-4.3646,-4.3645,-4.3482,-4.3521,-4.3535,-4.3572,-4.3584,-4.3603,-4.3638,-4.3636,-4.3669,-4.3701,-4.3686,-4.3731,-4.3744,-4.3777,-4.3786,-4.3821,-4.3795,-4.3816,-4.3822,-4.3828,-4.3836,-4.3676,-4.3825,-4.3825,-4.3824,-4.3824,-4.3824,0,-4.3638,-4.3645,-4.3679,-4.3708,-4.3738,-4.3707,-4.3727,-4.3753,-4.3794,-4.3808,-4.3836,-4.3881,-4.3915,-4.3913,-4.3944,-4.3973,-4.396,-4.3982,-4.398,-4.3981,-4.3857,-4.3841,-4.3992,-4.3992,-4.3992,-4.3992,-4.3992,-4.3992,-4.3723,-4.3786,-4.378,-4.3849,-4.3854,-4.39,-4.3914,-4.3931,-4.3942,-4.3994,-4.4023,-4.4022,-4.4029,-4.4061,-4.409,-4.4089,-4.4102,-4.413,-4.4123,-4.4007,-4.399,-4.3974,-4.3959,-4.4132,-4.4133,-4.4245,-4.4246,-4.4246]}]]